Location: Mabank
(32.3664°N, 96.1006°W)
Time: 20:51:49
(UTC-06:00)

OTV 5 (USA 277) - Visible Passes

Search period start: 22 February 2018 00:00
Search period end: 04 March 2018 00:00
Orbit: 404 x 417 km, 43.0° (Epoch: 07 September)

Date Brightness Start Highest point End Pass type
(mag) Time Alt. Az. Time Alt. Az. Time Alt. Az.
22 Feb ? 05:51:51 28° NW 05:52:35 31° NNW 05:55:34 10° NE visible
23 Feb ? 05:03:20 21° NE 05:03:20 21° NE 05:04:39 10° NE visible
24 Feb ? 05:47:30 17° NNW 05:48:02 18° NNW 05:50:25 10° NNE visible
25 Feb ? 04:58:49 14° NNE 04:58:49 14° NNE 04:59:31 10° NE visible
26 Feb ? 05:42:52 13° NNW 05:43:37 14° N 05:45:22 10° NNE visible
27 Feb ? 04:54:08 11° NNE 04:54:08 11° NNE 04:54:22 10° NNE visible
28 Feb ? 05:38:08 11° NNW 05:39:16 13° N 05:40:54 10° NNE visible
01 Mar ? 04:49:24 11° NNE 04:49:24 11° NNE 04:49:33 10° NNE visible
01 Mar ? 06:23:38 10° NNW 06:26:08 20° NNE 06:28:37 10° ENE visible
02 Mar ? 05:33:26 13° NNW 05:34:53 16° NNE 05:37:02 10° NE visible
03 Mar ? 04:44:46 12° NNE 04:44:46 12° NNE 04:45:27 10° NE visible
03 Mar ? 06:18:28 10° NW 06:21:32 36° NNE 06:24:37 10° E visible
